Flag for Poland Weather past 2 weeks in Ruda Śląska, Poland

Now
77 °F

Passing clouds.


Feels Like: 78 °F
Forecast: 64 / 79 °F
Wind: 14 mph from Northeast

Location: Katowice Airport

Current Time: Jul 22, 2014 at 11:27:40 AM

Latest Report: Jul 22, 2014 at 11:00 AM


Visibility: N/A

Pressure: 29.92 "Hg

Humidity: 44%

Dew point: 54 °F

Location of Ruda ŚląskaLocation

Historic Weather in Ruda Śląska — Graph

°F

Ruda Śląska temperature yesterday

Maximum temperature yesterday: 84 °F (at 1:30 PM)
Minimum temperature yesterday: 64 °F (at 5:30 AM)
Average temperature yesterday: 74 °F

Past Weeks' High & Low Weather Summary

 TemperatureHumidityPressure
High88 °F (Jul 20, 3:00 PM)100% (Jul 9, 3:00 PM)30.15 "Hg (Jul 9, 3:00 PM)
Low54 °F (Jul 13, 2:00 AM)30% (Jul 14, 4:00 PM)29.65 "Hg (Jul 9, 3:00 AM)
Average70 °F71%29.92 "Hg
* Reported Jul 7 10:00 AM — Jul 22 10:30 AM, Ruda Śląska, Weather by CustomWeather, © 2014

Note: Actual official high and low records may vary slightly from our data, if they occured in-between our weather recording intervals... More about our weather records

Advertising

Ruda Śląska weather history for previous 24 hours

 ConditionsComfort  
Time TempWeatherWind HumidityBarometerVisibility
10:30 AM
Jul 22
77 °FPassing clouds.13 mph47%29.92 "HgN/A
10:00 AM75 °FSunny.13 mph50%29.92 "Hg10 mi
9:30 AM73 °FSunny.15 mph53%29.89 "Hg10 mi
9:00 AM72 °FSunny.14 mph57%29.89 "Hg10 mi
8:30 AM72 °FSunny.13 mph57%29.89 "Hg10 mi
8:00 AM70 °FSunny.12 mph60%29.89 "Hg10 mi
7:30 AM68 °FPassing clouds.12 mph64%29.89 "HgN/A
7:00 AM66 °FPassing clouds.10 mph68%29.89 "HgN/A
6:30 AM64 °FSunny.7 mph73%29.89 "Hg10 mi
6:00 AM64 °FPassing clouds.9 mph73%29.86 "HgN/A
5:30 AM63 °FClear.9 mph77%29.86 "Hg10 mi
5:00 AM64 °FClear.10 mph73%29.86 "Hg10 mi
4:30 AM64 °FClear.12 mph73%29.86 "Hg10 mi
4:00 AM64 °FClear.10 mph73%29.86 "Hg10 mi
3:30 AM64 °FClear.10 mph78%29.86 "Hg10 mi
3:00 AM66 °FClear.10 mph73%29.86 "Hg10 mi
2:30 AM66 °FClear.9 mph78%29.86 "Hg10 mi
2:00 AM68 °FClear.10 mph73%29.86 "Hg10 mi
1:30 AM70 °FClear.12 mph73%29.86 "Hg10 mi
1:00 AM70 °FClear.9 mph73%29.86 "Hg10 mi
12:30 AM70 °FClear.8 mph78%29.86 "Hg10 mi
12:00 AM70 °FClear.8 mph78%29.86 "Hg10 mi
11:30 PM
Jul 21
70 °FClear.7 mph78%29.86 "Hg10 mi
11:00 PM70 °FClear.6 mph78%29.86 "Hg10 mi
10:30 PM72 °FClear.9 mph73%29.89 "Hg10 mi
10:00 PM72 °FClear.9 mph73%29.86 "Hg10 mi
9:30 PM73 °FSunny.10 mph69%29.86 "Hg10 mi
9:00 PM73 °FSunny.7 mph74%29.86 "Hg10 mi
8:30 PM75 °FSunny.7 mph69%29.83 "Hg10 mi
8:00 PM75 °FSunny.5 mph69%29.83 "Hg10 mi
7:30 PM77 °FSunny.6 mph61%29.83 "Hg10 mi
7:00 PM77 °FSunny.7 mph61%29.83 "Hg10 mi
6:30 PM79 °FSunny.10 mph58%29.83 "Hg10 mi
6:00 PM79 °FSunny.10 mph58%29.83 "Hg10 mi
5:30 PM79 °FSunny.14 mph61%29.83 "Hg10 mi
5:00 PM81 °FPassing clouds.12 mph58%29.80 "HgN/A
4:30 PM81 °FSunny.16 mph58%29.80 "Hg10 mi
4:00 PM81 °FSunny.15 mph54%29.80 "Hg10 mi
3:30 PM82 °FSunny.10 mph48%29.80 "Hg10 mi
3:00 PM84 °FPassing clouds.9 mph43%29.80 "HgN/A
2:30 PM84 °FPassing clouds.10 mph45%29.80 "HgN/A
2:00 PM84 °FPassing clouds.9 mph45%29.80 "HgN/A
1:30 PM84 °FPassing clouds.8 mph45%29.83 "HgN/A
1:00 PM82 °FPassing clouds.8 mph45%29.83 "HgN/A
12:30 PM82 °FPassing clouds.10 mph42%29.83 "HgN/A
12:00 PM82 °FPassing clouds.10 mph42%29.83 "HgN/A
11:30 AM81 °FPassing clouds.13 mph45%29.80 "HgN/A
11:00 AM79 °FPassing clouds.12 mph51%29.83 "HgN/A
Weather by CustomWeather, © 2014

See weather overviewHow to use our weather pages